This demonstration page uses our WeatherBlox Daily Observations layout. Learn more.

Left ArrowRight Arrow

44.8408, -93.29828

Hourly Observations for August 12, 2017

Temp ( °F °C ) Dew Point ( °F °C ) Humidity (%) Winds ( mph kmh ) Pressure ( in mb ) Visibility ( mi km ) Precip ( " mm )
12:53 am 00:53 Partly Cloudy 66 18.9 53 11.7 63 63 ESE 8 13 30.10 1019 10 16 0.00 0.00
1:53 am 01:53 Mostly Clear 65 18.3 52 11.1 63 63 SE 5 7 30.10 1019 10 16 0.00 0.00
2:53 am 02:53 Clear 63 17.2 52 11.1 68 68 SSE 5 7 30.10 1019 10 16 0.00 0.00
3:53 am 03:53 Clear 62 16.7 52 11.1 70 70 SE 3 6 30.11 1020 10 16 0.00 0.00
4:53 am 04:53 Clear 59 15 51 10.6 75 75 Calm 30.11 1020 10 16 0.00 0.00
5:53 am 05:53 Clear 58 14.4 52 11.1 81 81 Calm 30.11 1020 10 16 0.00 0.00
6:53 am 06:53 Mostly Sunny 60 15.6 53 11.7 78 78 Calm 30.12 1020 10 16 0.00 0.00
7:53 am 07:53 Sunny 65 18.3 53 11.7 66 66 Calm 30.13 1020 10 16 0.00 0.00
8:53 am 08:53 Sunny 68 20 52 11.1 57 57 Calm 30.14 1021 10 16 0.00 0.00
9:53 am 09:53 Sunny 71 21.7 50 10 47 47 VRB 3 6 30.14 1021 10 16 0.00 0.00
10:53 am 10:53 Sunny 74 23.3 51 10.6 45 45 Calm 30.13 1020 10 16 0.00 0.00
11:53 am 11:53 Sunny 76 24.4 51 10.6 42 42 Calm 30.13 1020 10 16 0.00 0.00
12:53 pm 12:53 Sunny 78 25.6 51 10.6 39 39 E 6 9 30.12 1020 10 16 0.00 0.00
1:53 pm 13:53 Mostly Cloudy 77 25 50 10 39 39 NW 7 11 30.11 1020 10 16 0.00 0.00
2:53 pm 14:53 Mostly Cloudy 78 25.6 50 10 37 37 Calm 30.09 1019 10 16 0.00 0.00
3:53 pm 15:53 Mostly Cloudy 78 25.6 51 10.6 39 39 E 6 9 30.08 1019 10 16 0.00 0.00
4:53 pm 16:53 Mostly Cloudy 79 26.1 52 11.1 39 39 SSE 9 15 30.07 1018 10 16 0.00 0.00
5:53 pm 17:53 Mostly Cloudy 78 25.6 51 10.6 39 39 S 8 13 30.05 1018 10 16 0.00 0.00
6:53 pm 18:53 Mostly Cloudy 75 23.9 52 11.1 45 45 SSE 10 17 30.04 1017 10 16 0.00 0.00
7:53 pm 19:53 Mostly Cloudy 73 22.8 51 10.6 46 46 SSE 7 11 30.04 1017 10 16 0.00 0.00
8:53 pm 20:53 Mostly Cloudy 72 22.2 52 11.1 50 50 SSE 6 9 30.04 1017 10 16 0.00 0.00
9:53 pm 21:53 Mostly Cloudy 68 20 52 11.1 57 57 SSE 7 11 30.05 1018 10 16 0.00 0.00
10:53 pm 22:53 Mostly Cloudy 70 21.1 52 11.1 53 53 S 3 6 30.04 1017 10 16 0.00 0.00
11:53 pm 23:53 Mostly Cloudy 67 19.4 52 11.1 59 59 SE 3 6 30.03 1017 10 16 0.00 0.00

Powered by AerisWeather